Time,TemperatureF,DewpointF,PressureIn,WindDirection,WindDirectionDegrees,WindSpeedMPH,WindSpeedGustMPH,Humidity,HourlyPrecipIn,Conditions,Clouds,dailyrainin,SoftwareType,DateUTC
2013-08-14 00:01:00,72.8,68.4,29.86,WSW,257,0.0,0.0,86,0.00,RA,,0.00,WeatherDisplay:10.37,2013-08-14 04:01:00,
2013-08-14 00:02:00,72.8,68.4,29.86,WSW,257,0.0,0.0,86,0.00,RA,,0.00,WeatherDisplay:10.37,2013-08-14 04:02:00,
2013-08-14 00:07:00,72.9,68.5,29.86,WSW,257,0.0,0.0,86,0.00,RA,,0.00,WeatherDisplay:10.37,2013-08-14 04:07:00,
2013-08-14 00:12:00,72.9,68.8,29.86,WSW,257,0.0,0.0,87,0.00,CLR,,0.00,WeatherDisplay:10.37,2013-08-14 04:12:00,
2013-08-14 00:17:00,73.0,69.2,29.86,WSW,257,0.0,0.0,88,0.00,CLR,,0.00,WeatherDisplay:10.37,2013-08-14 04:17:00,
2013-08-14 00:22:00,73.0,69.6,29.86,WSW,256,0.0,0.0,89,0.00,CLR,,0.00,WeatherDisplay:10.37,2013-08-14 04:22:00,
2013-08-14 00:27:00,73.1,69.7,29.86,WSW,256,0.0,0.0,89,0.00,CLR,,0.00,WeatherDisplay:10.37,2013-08-14 04:27:00,
2013-08-14 00:32:00,73.0,69.2,29.86,WSW,257,0.0,0.0,88,0.00,CLR,,0.00,WeatherDisplay:10.37,2013-08-14 04:32:00,
2013-08-14 00:37:00,72.9,69.1,29.86,WSW,257,0.0,0.0,88,0.00,CLR,,0.00,WeatherDisplay:10.37,2013-08-14 04:37:00,
2013-08-14 00:42:00,72.8,69.0,29.86,WSW,257,0.0,0.0,88,0.00,CLR,,0.00,WeatherDisplay:10.37,2013-08-14 04:42:00,
2013-08-14 00:47:00,72.8,69.4,29.85,WSW,257,0.0,0.0,89,0.00,CLR,,0.00,WeatherDisplay:10.37,2013-08-14 04:47:00,
2013-08-14 00:52:00,72.8,69.4,29.86,WSW,257,0.0,0.0,89,0.00,CLR,,0.00,WeatherDisplay:10.37,2013-08-14 04:52:00,
2013-08-14 00:57:00,72.8,69.7,29.86,WSW,256,0.0,0.0,90,0.00,CLR,,0.00,WeatherDisplay:10.37,2013-08-14 04:57:00,
2013-08-14 01:02:00,72.7,69.6,29.86,WSW,256,0.0,0.0,90,0.00,CLR,,0.00,WeatherDisplay:10.37,2013-08-14 05:02:00,
2013-08-14 01:07:00,72.6,69.2,29.86,WSW,257,0.0,0.0,89,0.00,CLR,,0.00,WeatherDisplay:10.37,2013-08-14 05:07:00,
2013-08-14 01:12:00,72.5,69.4,29.86,WSW,257,0.0,0.0,90,0.00,CLR,,0.00,WeatherDisplay:10.37,2013-08-14 05:12:00,
2013-08-14 01:17:00,72.4,69.3,29.86,WSW,256,0.0,0.0,90,0.00,CLR,,0.00,WeatherDisplay:10.37,2013-08-14 05:17:00,
2013-08-14 01:22:00,72.3,69.2,29.86,WSW,256,0.0,0.0,90,0.00,CLR,,0.00,WeatherDisplay:10.37,2013-08-14 05:22:00,
2013-08-14 01:27:00,72.2,69.1,29.86,WSW,257,0.0,0.0,90,0.00,CLR,,0.00,WeatherDisplay:10.37,2013-08-14 05:27:00,
2013-08-14 01:32:00,72.2,69.1,29.86,WSW,256,0.0,0.0,90,0.00,CLR,,0.00,WeatherDisplay:10.37,2013-08-14 05:32:00,
2013-08-14 01:37:00,72.1,69.0,29.86,WSW,256,0.0,0.0,90,0.00,CLR,,0.00,WeatherDisplay:10.37,2013-08-14 05:37:00,
2013-08-14 01:42:00,72.0,68.9,29.86,WSW,257,0.0,0.0,90,0.00,CLR,,0.00,WeatherDisplay:10.37,2013-08-14 05:42:00,
2013-08-14 01:47:00,72.0,68.9,29.86,WSW,257,0.0,0.0,90,0.00,CLR,,0.00,WeatherDisplay:10.37,2013-08-14 05:47:00,
2013-08-14 01:52:00,71.9,68.8,29.86,WSW,257,0.0,0.0,90,0.00,CLR,,0.00,WeatherDisplay:10.37,2013-08-14 05:52:00,
2013-08-14 01:57:00,71.9,68.8,29.86,West,260,3.5,3.5,90,0.00,CLR,,0.00,WeatherDisplay:10.37,2013-08-14 05:57:00,
2013-08-14 02:02:00,71.8,68.4,29.86,West,260,0.0,0.0,89,0.00,CLR,,0.00,WeatherDisplay:10.37,2013-08-14 06:02:00,
2013-08-14 02:07:00,71.8,68.4,29.86,NW,317,0.0,0.0,89,0.00,CLR,,0.00,WeatherDisplay:10.37,2013-08-14 06:07:00,
2013-08-14 02:12:00,71.8,68.7,29.86,NW,317,0.0,0.0,90,0.00,CLR,,0.00,WeatherDisplay:10.37,2013-08-14 06:12:00,
2013-08-14 02:17:00,71.8,68.7,29.85,NW,317,0.0,0.0,90,0.00,CLR,,0.00,WeatherDisplay:10.37,2013-08-14 06:17:00,
2013-08-14 02:22:00,71.7,68.3,29.86,NW,317,0.0,0.0,89,0.00,CLR,,0.00,WeatherDisplay:10.37,2013-08-14 06:22:00,
2013-08-14 02:27:00,71.7,68.3,29.86,NW,317,0.0,0.0,89,0.00,CLR,,0.00,WeatherDisplay:10.37,2013-08-14 06:27:00,
2013-08-14 02:32:00,71.6,68.2,29.86,NW,317,0.0,0.0,89,0.00,CLR,,0.00,WeatherDisplay:10.37,2013-08-14 06:32:00,
2013-08-14 02:37:00,71.5,68.1,29.86,NW,317,0.0,0.0,89,0.00,CLR,,0.00,WeatherDisplay:10.37,2013-08-14 06:37:00,
2013-08-14 02:42:00,71.4,68.0,29.86,NW,317,0.0,0.0,89,0.00,CLR,,0.00,WeatherDisplay:10.37,2013-08-14 06:42:00,
2013-08-14 02:47:00,71.3,68.2,29.86,NW,317,0.0,0.0,90,0.00,CLR,,0.00,WeatherDisplay:10.37,2013-08-14 06:47:00,
2013-08-14 02:52:00,71.3,68.2,29.86,North,360,0.0,0.0,90,0.00,CLR,,0.00,WeatherDisplay:10.37,2013-08-14 06:52:00,
2013-08-14 02:57:00,71.2,68.1,29.86,North,360,0.0,0.0,90,0.00,CLR,,0.00,WeatherDisplay:10.37,2013-08-14 06:57:00,
2013-08-14 03:02:00,71.1,68.0,29.86,North,5,3.5,3.5,90,0.00,CLR,,0.00,WeatherDisplay:10.37,2013-08-14 07:02:00,
2013-08-14 03:07:00,71.0,67.9,29.87,North,5,3.5,3.5,90,0.00,CLR,,0.00,WeatherDisplay:10.37,2013-08-14 07:07:00,
2013-08-14 03:12:00,71.0,67.9,29.87,North,360,2.3,2.3,90,0.00,CLR,,0.00,WeatherDisplay:10.37,2013-08-14 07:12:00,
2013-08-14 03:17:00,70.9,67.8,29.87,North,5,0.0,0.0,90,0.00,CLR,,0.00,WeatherDisplay:10.37,2013-08-14 07:17:00,
2013-08-14 03:22:00,70.9,67.8,29.87,North,5,0.0,0.0,90,0.00,CLR,,0.00,WeatherDisplay:10.37,2013-08-14 07:22:00,
2013-08-14 03:27:00,70.8,67.7,29.87,North,360,0.0,0.0,90,0.00,CLR,,0.00,WeatherDisplay:10.37,2013-08-14 07:27:00,
2013-08-14 03:32:00,70.8,67.7,29.87,North,5,0.0,0.0,90,0.00,CLR,,0.00,WeatherDisplay:10.37,2013-08-14 07:32:00,
2013-08-14 03:37:00,70.8,67.7,29.86,North,5,0.0,0.0,90,0.00,CLR,,0.00,WeatherDisplay:10.37,2013-08-14 07:37:00,
2013-08-14 03:42:00,70.7,67.6,29.86,North,5,0.0,0.0,90,0.00,CLR,,0.00,WeatherDisplay:10.37,2013-08-14 07:42:00,
2013-08-14 03:47:00,70.7,67.3,29.87,North,360,2.3,2.3,89,0.00,CLR,,0.00,WeatherDisplay:10.37,2013-08-14 07:47:00,
2013-08-14 03:52:00,70.6,67.2,29.86,North,360,0.0,0.0,89,0.00,CLR,,0.00,WeatherDisplay:10.37,2013-08-14 07:52:00,
2013-08-14 03:57:00,70.5,67.1,29.87,North,5,0.0,0.0,89,0.00,CLR,,0.00,WeatherDisplay:10.37,2013-08-14 07:57:00,
2013-08-14 04:02:00,70.4,67.0,29.87,North,5,0.0,0.0,89,0.00,CLR,,0.00,WeatherDisplay:10.37,2013-08-14 08:02:00,
2013-08-14 04:07:00,70.3,66.9,29.87,North,360,0.0,0.0,89,0.00,CLR,,0.00,WeatherDisplay:10.37,2013-08-14 08:07:00,
2013-08-14 04:12:00,70.2,67.1,29.86,North,5,0.0,0.0,90,0.00,CLR,,0.00,WeatherDisplay:10.37,2013-08-14 08:12:00,
2013-08-14 04:17:00,70.0,66.6,29.86,North,5,0.0,0.0,89,0.00,CLR,,0.00,WeatherDisplay:10.37,2013-08-14 08:17:00,
2013-08-14 04:22:00,69.9,66.8,29.86,North,360,0.0,0.0,90,0.00,CLR,,0.00,WeatherDisplay:10.37,2013-08-14 08:22:00,
2013-08-14 04:27:00,69.7,66.6,29.86,North,360,0.0,0.0,90,0.00,CLR,,0.00,WeatherDisplay:10.37,2013-08-14 08:27:00,
2013-08-14 04:32:00,69.5,66.4,29.86,North,5,0.0,0.0,90,0.00,CLR,,0.00,WeatherDisplay:10.37,2013-08-14 08:32:00,
2013-08-14 04:37:00,69.4,66.3,29.86,North,5,0.0,0.0,90,0.00,CLR,,0.00,WeatherDisplay:10.37,2013-08-14 08:37:00,
2013-08-14 04:42:00,69.3,66.2,29.86,North,5,0.0,0.0,90,0.00,CLR,,0.00,WeatherDisplay:10.37,2013-08-14 08:42:00,
2013-08-14 04:47:00,69.2,66.1,29.86,North,5,0.0,0.0,90,0.00,CLR,,0.00,WeatherDisplay:10.37,2013-08-14 08:47:00,
2013-08-14 04:52:00,69.0,65.9,29.86,North,9,3.0,3.0,90,0.00,CLR,,0.00,WeatherDisplay:10.37,2013-08-14 08:52:00,
2013-08-14 04:57:00,69.0,65.6,29.86,North,9,0.0,0.0,89,0.00,CLR,,0.00,WeatherDisplay:10.37,2013-08-14 08:57:00,
2013-08-14 05:02:00,68.9,65.2,29.87,North,9,1.2,1.2,88,0.00,CLR,,0.00,WeatherDisplay:10.37,2013-08-14 09:02:00,
2013-08-14 05:07:00,69.0,65.3,29.87,North,9,3.5,3.5,88,0.00,CLR,,0.00,WeatherDisplay:10.37,2013-08-14 09:07:00,
2013-08-14 05:12:00,69.0,65.3,29.87,North,9,0.0,0.0,88,0.00,CLR,,0.00,WeatherDisplay:10.37,2013-08-14 09:12:00,
2013-08-14 05:17:00,69.0,65.0,29.87,North,9,0.0,0.0,87,0.00,CLR,,0.00,WeatherDisplay:10.37,2013-08-14 09:17:00,
2013-08-14 05:22:00,69.0,64.6,29.87,North,9,0.0,0.0,86,0.00,CLR,,0.00,WeatherDisplay:10.37,2013-08-14 09:22:00,
2013-08-14 05:27:00,69.0,64.6,29.87,North,9,0.0,0.0,86,0.00,CLR,,0.00,WeatherDisplay:10.37,2013-08-14 09:27:00,
2013-08-14 05:32:00,69.0,64.6,29.87,North,9,0.0,0.0,86,0.00,CLR,,0.00,WeatherDisplay:10.37,2013-08-14 09:32:00,
2013-08-14 05:37:00,69.0,64.6,29.88,North,9,0.0,0.0,86,0.00,CLR,,0.00,WeatherDisplay:10.37,2013-08-14 09:37:00,
2013-08-14 05:42:00,69.0,64.6,29.87,North,9,0.0,0.0,86,0.00,CLR,,0.00,WeatherDisplay:10.37,2013-08-14 09:42:00,
2013-08-14 05:47:00,68.9,64.5,29.87,North,9,0.0,0.0,86,0.00,CLR,,0.00,WeatherDisplay:10.37,2013-08-14 09:47:00,
2013-08-14 05:52:00,68.8,64.4,29.87,North,9,0.0,0.0,86,0.00,CLR,,0.00,WeatherDisplay:10.37,2013-08-14 09:52:00,
2013-08-14 05:57:00,68.7,64.3,29.88,North,9,0.0,0.0,86,0.00,CLR,,0.00,WeatherDisplay:10.37,2013-08-14 09:57:00,
2013-08-14 06:02:00,68.7,64.0,29.88,North,9,0.0,0.0,85,0.00,CLR,,0.00,WeatherDisplay:10.37,2013-08-14 10:02:00,
2013-08-14 06:07:00,68.6,64.2,29.88,North,9,0.0,0.0,86,0.00,CLR,,0.00,WeatherDisplay:10.37,2013-08-14 10:07:00,
2013-08-14 06:12:00,68.6,64.2,29.89,North,9,0.0,0.0,86,0.00,CLR,,0.00,WeatherDisplay:10.37,2013-08-14 10:12:00,
2013-08-14 06:17:00,68.5,64.1,29.89,North,9,0.0,0.0,86,0.00,CLR,,0.00,WeatherDisplay:10.37,2013-08-14 10:17:00,
2013-08-14 06:22:00,68.5,64.1,29.89,North,9,0.0,0.0,86,0.00,CLR,,0.00,WeatherDisplay:10.37,2013-08-14 10:22:00,
2013-08-14 06:27:00,68.4,64.4,29.90,North,9,0.0,0.0,87,0.00,CLR,,0.00,WeatherDisplay:10.37,2013-08-14 10:27:00,
2013-08-14 06:32:00,68.3,64.3,29.90,North,9,0.0,0.0,87,0.00,CLR,,0.00,WeatherDisplay:10.37,2013-08-14 10:32:00,
2013-08-14 06:37:00,68.2,64.2,29.90,North,9,0.0,0.0,87,0.00,CLR,,0.00,WeatherDisplay:10.37,2013-08-14 10:37:00,
2013-08-14 06:42:00,68.1,64.1,29.90,North,9,0.0,0.0,87,0.00,CLR,,0.00,WeatherDisplay:10.37,2013-08-14 10:42:00,
2013-08-14 06:47:00,68.0,64.0,29.91,North,9,0.0,0.0,87,0.00,CLR,,0.00,WeatherDisplay:10.37,2013-08-14 10:47:00,
2013-08-14 06:52:00,68.0,64.0,29.91,North,9,0.0,0.0,87,0.00,CLR,,0.00,WeatherDisplay:10.37,2013-08-14 10:52:00,
2013-08-14 06:57:00,67.9,64.2,29.91,North,9,0.0,0.0,88,0.00,CLR,,0.00,WeatherDisplay:10.37,2013-08-14 10:57:00,
2013-08-14 07:02:00,67.9,64.2,29.92,North,9,0.0,0.0,88,0.00,CLR,,0.00,WeatherDisplay:10.37,2013-08-14 11:02:00,
2013-08-14 07:07:00,67.9,64.2,29.92,WNW,289,0.0,0.0,88,0.00,CLR,,0.00,WeatherDisplay:10.37,2013-08-14 11:07:00,
2013-08-14 07:12:00,67.9,63.9,29.92,SE,129,0.0,0.0,87,0.00,CLR,,0.00,WeatherDisplay:10.37,2013-08-14 11:12:00,
2013-08-14 07:17:00,67.9,63.6,29.92,SW,218,0.0,0.0,86,0.00,CLR,,0.00,WeatherDisplay:10.37,2013-08-14 11:17:00,
2013-08-14 07:22:00,67.9,63.6,29.92,NNE,21,0.0,0.0,86,0.00,CLR,,0.00,WeatherDisplay:10.37,2013-08-14 11:22:00,
2013-08-14 07:27:00,68.0,63.7,29.93,NE,48,0.0,0.0,86,0.00,CLR,,0.00,WeatherDisplay:10.37,2013-08-14 11:27:00,
2013-08-14 07:32:00,68.1,63.8,29.93,North,351,0.0,0.0,86,0.00,CLR,,0.00,WeatherDisplay:10.37,2013-08-14 11:32:00,
2013-08-14 07:37:00,68.1,63.8,29.93,North,351,0.0,0.0,86,0.00,CLR,,0.00,WeatherDisplay:10.37,2013-08-14 11:37:00,
2013-08-14 07:42:00,68.2,64.2,29.93,North,351,0.0,0.0,87,0.00,CLR,,0.00,WeatherDisplay:10.37,2013-08-14 11:42:00,
2013-08-14 07:47:00,68.3,64.3,29.93,NW,318,0.0,0.0,87,0.00,CLR,,0.00,WeatherDisplay:10.37,2013-08-14 11:47:00,
2013-08-14 07:52:00,68.3,63.9,29.93,NW,318,0.0,0.0,86,0.00,CLR,,0.00,WeatherDisplay:10.37,2013-08-14 11:52:00,
2013-08-14 07:57:00,68.3,63.9,29.93,NW,319,1.2,0.0,86,0.00,CLR,,0.00,WeatherDisplay:10.37,2013-08-14 11:57:00,
2013-08-14 08:02:00,68.4,64.0,29.93,NW,308,0.0,0.0,86,0.00,CLR,,0.00,WeatherDisplay:10.37,2013-08-14 12:02:00,
2013-08-14 08:07:00,68.4,63.7,29.94,NNE,15,0.0,0.0,85,0.00,CLR,,0.00,WeatherDisplay:10.37,2013-08-14 12:07:00,
2013-08-14 08:12:00,68.4,63.7,29.94,NNE,33,0.0,0.0,85,0.00,CLR,,0.00,WeatherDisplay:10.37,2013-08-14 12:12:00,
2013-08-14 08:17:00,68.5,63.8,29.94,NE,37,0.0,0.0,85,0.00,CLR,,0.00,WeatherDisplay:10.37,2013-08-14 12:17:00,
2013-08-14 08:22:00,68.7,64.0,29.94,NE,37,0.0,0.0,85,0.00,CLR,,0.00,WeatherDisplay:10.37,2013-08-14 12:22:00,
2013-08-14 08:27:00,68.8,64.4,29.94,NE,49,0.0,0.0,86,0.00,CLR,,0.00,WeatherDisplay:10.37,2013-08-14 12:27:00,
2013-08-14 08:32:00,68.9,64.2,29.95,NE,49,0.0,0.0,85,0.00,CLR,,0.00,WeatherDisplay:10.37,2013-08-14 12:32:00,
2013-08-14 08:37:00,69.0,64.3,29.95,NE,49,0.0,0.0,85,0.00,CLR,,0.00,WeatherDisplay:10.37,2013-08-14 12:37:00,
2013-08-14 08:42:00,69.2,63.8,29.95,NE,49,3.5,3.5,83,0.00,CLR,,0.00,WeatherDisplay:10.37,2013-08-14 12:42:00,
2013-08-14 08:47:00,69.5,64.1,29.95,NE,49,1.2,0.0,83,0.00,CLR,,0.00,WeatherDisplay:10.37,2013-08-14 12:47:00,
2013-08-14 08:52:00,69.8,64.1,29.95,NE,49,3.5,3.5,82,0.00,CLR,,0.00,WeatherDisplay:10.37,2013-08-14 12:52:00,
2013-08-14 08:57:00,70.1,64.3,29.96,East,83,3.5,3.5,82,0.00,CLR,,0.00,WeatherDisplay:10.37,2013-08-14 12:57:00,
2013-08-14 09:02:00,70.2,64.1,29.96,NE,49,4.6,4.6,81,0.00,CLR,,0.00,WeatherDisplay:10.37,2013-08-14 13:02:00,
2013-08-14 09:07:00,70.2,64.4,29.96,ENE,69,3.5,3.5,82,0.00,CLR,,0.00,WeatherDisplay:10.37,2013-08-14 13:07:00,
2013-08-14 09:12:00,70.2,64.4,29.96,ENE,71,3.5,3.5,82,0.00,CLR,,0.00,WeatherDisplay:10.37,2013-08-14 13:12:00,
2013-08-14 09:17:00,70.4,65.3,29.96,ENE,64,4.0,4.0,84,0.00,CLR,,0.00,WeatherDisplay:10.37,2013-08-14 13:17:00,
2013-08-14 09:22:00,70.7,65.6,29.96,NE,39,6.9,6.9,84,0.00,CLR,,0.00,WeatherDisplay:10.37,2013-08-14 13:22:00,
2013-08-14 09:27:00,71.1,65.3,29.96,ENE,65,4.0,4.0,82,0.00,CLR,,0.00,WeatherDisplay:10.37,2013-08-14 13:27:00,
2013-08-14 09:32:00,71.3,64.8,29.96,NE,55,5.8,5.8,80,0.00,CLR,,0.00,WeatherDisplay:10.37,2013-08-14 13:32:00,
2013-08-14 09:37:00,71.3,64.8,29.96,ENE,65,5.8,5.8,80,0.00,CLR,,0.00,WeatherDisplay:10.37,2013-08-14 13:37:00,
2013-08-14 09:42:00,71.3,64.4,29.96,ENE,57,6.9,6.9,79,0.00,CLR,,0.00,WeatherDisplay:10.37,2013-08-14 13:42:00,
2013-08-14 09:47:00,71.3,64.4,29.96,NE,38,9.2,9.2,79,0.00,CLR,,0.00,WeatherDisplay:10.37,2013-08-14 13:47:00,
2013-08-14 09:52:00,71.3,64.8,29.96,NE,55,4.6,4.6,80,0.00,CLR,,0.00,WeatherDisplay:10.37,2013-08-14 13:52:00,
2013-08-14 09:57:00,71.5,63.9,29.97,East,81,8.1,8.1,77,0.00,CLR,,0.00,WeatherDisplay:10.37,2013-08-14 13:57:00,
2013-08-14 10:02:00,71.8,64.9,29.96,NNE,32,6.9,6.9,79,0.00,CLR,,0.00,WeatherDisplay:10.37,2013-08-14 14:02:00,
2013-08-14 10:07:00,72.1,64.5,29.96,ENE,75,10.4,10.4,77,0.00,CLR,,0.00,WeatherDisplay:10.37,2013-08-14 14:07:00,
2013-08-14 10:12:00,72.3,65.1,29.96,ENE,65,5.0,5.0,78,0.00,CLR,,0.00,WeatherDisplay:10.37,2013-08-14 14:12:00,
2013-08-14 10:17:00,72.2,64.2,29.97,East,80,5.8,5.8,76,0.00,CLR,,0.00,WeatherDisplay:10.37,2013-08-14 14:17:00,
2013-08-14 10:22:00,72.0,64.8,29.97,ENE,74,8.1,8.1,78,0.00,CLR,,0.00,WeatherDisplay:10.37,2013-08-14 14:22:00,
2013-08-14 10:27:00,71.7,63.4,29.97,ENE,70,9.2,9.2,75,0.00,CLR,,0.00,WeatherDisplay:10.37,2013-08-14 14:27:00,
2013-08-14 10:32:00,71.5,63.2,29.97,NE,44,11.5,11.5,75,0.00,CLR,,0.00,WeatherDisplay:10.37,2013-08-14 14:32:00,
2013-08-14 10:37:00,71.2,62.9,29.97,NE,48,10.4,10.4,75,0.00,CLR,,0.00,WeatherDisplay:10.37,2013-08-14 14:37:00,
2013-08-14 10:42:00,71.3,63.7,29.97,NE,38,5.8,5.8,77,0.00,CLR,,0.00,WeatherDisplay:10.37,2013-08-14 14:42:00,
2013-08-14 10:47:00,71.4,63.4,29.97,NE,56,4.6,4.6,76,0.00,CLR,,0.00,WeatherDisplay:10.37,2013-08-14 14:47:00,
2013-08-14 10:52:00,71.7,64.1,29.97,NE,50,4.6,4.6,77,0.00,CLR,,0.00,WeatherDisplay:10.37,2013-08-14 14:52:00,
2013-08-14 10:57:00,72.0,64.8,29.98,ENE,62,5.0,5.0,78,0.00,CLR,,0.00,WeatherDisplay:10.37,2013-08-14 14:57:00,
2013-08-14 11:02:00,72.1,63.7,29.98,NE,56,6.9,6.9,75,0.00,CLR,,0.00,WeatherDisplay:10.37,2013-08-14 15:02:00,
2013-08-14 11:07:00,71.9,63.9,29.98,NE,51,4.6,4.6,76,0.00,CLR,,0.00,WeatherDisplay:10.37,2013-08-14 15:07:00,
2013-08-14 11:12:00,71.9,64.3,29.98,NE,55,9.2,9.2,77,0.00,CLR,,0.00,WeatherDisplay:10.37,2013-08-14 15:12:00,
2013-08-14 11:17:00,72.0,65.1,29.98,NE,49,7.0,7.0,79,0.00,CLR,,0.00,WeatherDisplay:10.37,2013-08-14 15:17:00,
2013-08-14 11:22:00,72.1,64.5,29.98,ESE,107,6.9,6.9,77,0.00,CLR,,0.00,WeatherDisplay:10.37,2013-08-14 15:22:00,
2013-08-14 11:27:00,72.2,64.6,29.98,ENE,57,3.5,3.5,77,0.00,CLR,,0.00,WeatherDisplay:10.37,2013-08-14 15:27:00,
2013-08-14 11:32:00,72.2,63.8,29.98,NE,55,10.4,10.4,75,0.00,CLR,,0.00,WeatherDisplay:10.37,2013-08-14 15:32:00,
2013-08-14 11:37:00,72.0,63.6,29.98,NE,44,6.9,6.9,75,0.00,CLR,,0.00,WeatherDisplay:10.37,2013-08-14 15:37:00,
2013-08-14 11:42:00,71.9,63.9,29.99,ENE,70,6.0,6.0,76,0.00,CLR,,0.00,WeatherDisplay:10.37,2013-08-14 15:42:00,
2013-08-14 11:47:00,71.7,63.4,29.99,East,96,7.0,7.0,75,0.00,CLR,,0.00,WeatherDisplay:10.37,2013-08-14 15:47:00,
2013-08-14 11:54:00,71.6,62.9,29.99,ENE,71,6.9,6.9,74,0.00,CLR,,0.00,WeatherDisplay:10.37,2013-08-14 15:54:00,
2013-08-14 11:59:00,71.6,62.9,29.99,ESE,106,10.0,10.0,74,0.00,CLR,,0.00,WeatherDisplay:10.37,2013-08-14 15:59:00,
2013-08-14 12:04:00,71.6,62.5,29.99,NE,53,0.0,0.0,73,0.00,CLR,,0.00,WeatherDisplay:10.37,2013-08-14 16:04:00,
2013-08-14 12:09:00,71.6,62.9,29.99,NE,46,10.0,10.0,74,0.00,CLR,,0.00,WeatherDisplay:10.37,2013-08-14 16:09:00,
2013-08-14 12:14:00,71.6,62.9,29.99,ENE,63,6.0,6.0,74,0.00,CLR,,0.00,WeatherDisplay:10.37,2013-08-14 16:14:00,
2013-08-14 12:19:00,71.6,61.7,29.99,NNE,19,10.4,10.4,71,0.00,CLR,,0.00,WeatherDisplay:10.37,2013-08-14 16:19:00,
2013-08-14 12:24:00,71.8,62.7,29.99,East,92,5.8,5.8,73,0.00,CLR,,0.00,WeatherDisplay:10.37,2013-08-14 16:24:00,
2013-08-14 12:29:00,71.9,61.6,29.99,NE,51,11.5,11.5,70,0.00,CLR,,0.00,WeatherDisplay:10.37,2013-08-14 16:29:00,
2013-08-14 12:34:00,71.7,61.8,29.99,ENE,76,5.8,5.8,71,0.00,CLR,,0.00,WeatherDisplay:10.37,2013-08-14 16:34:00,
2013-08-14 12:39:00,71.7,63.0,29.99,ENE,59,2.3,2.3,74,0.00,CLR,,0.00,WeatherDisplay:10.37,2013-08-14 16:39:00,
2013-08-14 12:44:00,71.8,62.7,29.99,ENE,64,3.5,3.5,73,0.00,CLR,,0.00,WeatherDisplay:10.37,2013-08-14 16:44:00,
2013-08-14 12:49:00,72.1,63.4,29.99,East,99,5.0,5.0,74,0.00,CLR,,0.00,WeatherDisplay:10.37,2013-08-14 16:49:00,
2013-08-14 12:54:00,72.3,63.5,29.99,ESE,117,4.6,4.6,74,0.00,CLR,,0.00,WeatherDisplay:10.37,2013-08-14 16:54:00,
2013-08-14 12:59:00,72.6,63.4,29.99,ENE,63,4.0,4.0,73,0.00,CLR,,0.00,WeatherDisplay:10.37,2013-08-14 16:59:00,
2013-08-14 13:04:00,72.8,63.2,29.99,NE,44,7.0,7.0,72,0.00,CLR,,0.00,WeatherDisplay:10.37,2013-08-14 17:04:00,
2013-08-14 13:09:00,72.6,62.3,29.99,East,84,9.2,9.2,70,0.00,CLR,,0.00,WeatherDisplay:10.37,2013-08-14 17:09:00,
2013-08-14 13:14:00,72.5,62.2,29.99,NE,53,7.0,7.0,70,0.00,CLR,,0.00,WeatherDisplay:10.37,2013-08-14 17:14:00,
2013-08-14 13:19:00,72.5,63.7,29.99,East,94,5.8,5.8,74,0.00,CLR,,0.00,WeatherDisplay:10.37,2013-08-14 17:19:00,
2013-08-14 13:24:00,72.7,63.5,29.99,NE,53,4.0,4.0,73,0.00,CLR,,0.00,WeatherDisplay:10.37,2013-08-14 17:24:00,
2013-08-14 13:29:00,73.0,63.8,29.99,ENE,73,3.5,3.5,73,0.00,CLR,,0.00,WeatherDisplay:10.37,2013-08-14 17:29:00,
2013-08-14 13:35:00,73.3,64.1,29.99,NNE,16,2.3,2.3,73,0.00,CLR,,0.00,WeatherDisplay:10.37,2013-08-14 17:35:00,
2013-08-14 13:40:00,73.5,63.5,29.99,NE,52,4.6,4.6,71,0.00,CLR,,0.00,WeatherDisplay:10.37,2013-08-14 17:40:00,
2013-08-14 13:45:00,73.5,64.3,29.99,East,86,5.0,5.0,73,0.00,CLR,,0.00,WeatherDisplay:10.37,2013-08-14 17:45:00,
2013-08-14 13:50:00,73.7,63.3,29.99,NE,36,5.8,5.8,70,0.00,CLR,,0.00,WeatherDisplay:10.37,2013-08-14 17:50:00,
2013-08-14 13:55:00,74.2,64.6,29.98,East,98,5.8,5.8,72,0.00,CLR,,0.00,WeatherDisplay:10.37,2013-08-14 17:55:00,
2013-08-14 14:00:00,74.6,63.8,29.98,East,82,9.2,9.2,69,0.00,CLR,,0.00,WeatherDisplay:10.37,2013-08-14 18:00:00,
2013-08-14 14:05:00,74.8,63.9,29.98,ENE,63,5.8,5.8,69,0.00,CLR,,0.00,WeatherDisplay:10.37,2013-08-14 18:05:00,
2013-08-14 14:10:00,75.1,63.0,29.98,NE,51,6.9,6.9,66,0.00,CLR,,0.00,WeatherDisplay:10.37,2013-08-14 18:10:00,
2013-08-14 14:15:00,75.4,63.2,29.98,East,88,9.2,9.2,66,0.00,CLR,,0.00,WeatherDisplay:10.37,2013-08-14 18:15:00,
2013-08-14 14:20:00,75.0,62.4,29.98,ENE,57,6.9,6.9,65,0.00,CLR,,0.00,WeatherDisplay:10.37,2013-08-14 18:20:00,
2013-08-14 14:26:00,75.0,62.9,29.98,NE,45,5.8,5.8,66,0.00,CLR,,0.00,WeatherDisplay:10.37,2013-08-14 18:26:00,
2013-08-14 14:32:00,75.4,63.7,29.98,NNE,29,7.0,7.0,67,0.00,CLR,,0.00,WeatherDisplay:10.37,2013-08-14 18:32:00,
2013-08-14 14:37:00,75.7,65.2,29.98,East,79,1.2,0.0,70,0.00,CLR,,0.00,WeatherDisplay:10.37,2013-08-14 18:37:00,
2013-08-14 14:42:00,76.0,63.8,29.98,ENE,72,1.2,1.2,66,0.00,CLR,,0.00,WeatherDisplay:10.37,2013-08-14 18:42:00,
2013-08-14 14:47:00,76.5,64.3,29.97,SE,125,3.5,3.5,66,0.00,CLR,,0.00,WeatherDisplay:10.37,2013-08-14 18:47:00,
2013-08-14 14:52:00,77.0,64.3,29.97,NE,52,3.5,3.5,65,0.00,CLR,,0.00,WeatherDisplay:10.37,2013-08-14 18:52:00,
2013-08-14 14:58:00,76.9,63.3,29.97,ESE,104,0.0,2.0,63,0.00,CLR,,0.00,WeatherDisplay:10.37,2013-08-14 18:58:00,
2013-08-14 15:03:00,76.6,63.1,29.97,NE,39,5.8,5.8,63,0.00,CLR,,0.00,WeatherDisplay:10.37,2013-08-14 19:03:00,
2013-08-14 15:08:00,75.8,62.8,29.97,ENE,67,4.6,4.6,64,0.00,CLR,,0.00,WeatherDisplay:10.37,2013-08-14 19:08:00,
2013-08-14 15:13:00,75.8,63.6,29.97,ENE,64,5.8,5.8,66,0.00,CLR,,0.00,WeatherDisplay:10.37,2013-08-14 19:13:00,
2013-08-14 15:18:00,76.1,63.5,29.97,ESE,105,3.5,3.5,65,0.00,CLR,,0.00,WeatherDisplay:10.37,2013-08-14 19:18:00,
2013-08-14 15:23:00,76.5,64.7,29.96,ENE,60,1.2,1.2,67,0.00,CLR,,0.00,WeatherDisplay:10.37,2013-08-14 19:23:00,
2013-08-14 15:29:00,77.1,65.3,29.97,SSE,159,5.8,5.8,67,0.00,CLR,,0.00,WeatherDisplay:10.37,2013-08-14 19:29:00,
2013-08-14 15:34:00,77.6,64.9,29.97,ENE,65,5.8,5.8,65,0.00,CLR,,0.00,WeatherDisplay:10.37,2013-08-14 19:34:00,
2013-08-14 15:39:00,77.5,64.8,29.97,ENE,64,7.0,7.0,65,0.00,CLR,,0.00,WeatherDisplay:10.37,2013-08-14 19:39:00,
2013-08-14 15:45:00,77.4,63.4,29.97,ENE,77,6.0,6.0,62,0.00,CLR,,0.00,WeatherDisplay:10.37,2013-08-14 19:45:00,
2013-08-14 15:50:00,77.2,63.6,29.97,NE,40,5.8,5.8,63,0.00,CLR,,0.00,WeatherDisplay:10.37,2013-08-14 19:50:00,
2013-08-14 15:55:00,76.9,62.9,29.97,East,90,6.0,6.0,62,0.00,CLR,,0.00,WeatherDisplay:10.37,2013-08-14 19:55:00,
2013-08-14 16:00:00,76.6,63.1,29.97,ENE,71,7.0,7.0,63,0.00,CLR,,0.00,WeatherDisplay:10.37,2013-08-14 20:00:00,
2013-08-14 16:05:00,76.5,63.4,29.97,ENE,67,6.0,6.0,64,0.00,CLR,,0.00,WeatherDisplay:10.37,2013-08-14 20:05:00,
2013-08-14 16:10:00,76.9,63.8,29.97,ENE,63,6.9,6.9,64,0.00,CLR,,0.00,WeatherDisplay:10.37,2013-08-14 20:10:00,
2013-08-14 16:15:00,76.9,62.4,29.97,NNE,31,11.5,11.5,61,0.00,CLR,,0.00,WeatherDisplay:10.37,2013-08-14 20:15:00,
2013-08-14 16:21:00,76.8,61.9,29.97,NNE,24,10.4,10.4,60,0.00,CLR,,0.00,WeatherDisplay:10.37,2013-08-14 20:21:00,
2013-08-14 16:27:00,76.8,63.7,29.97,East,79,10.4,10.4,64,0.00,CLR,,0.00,WeatherDisplay:10.37,2013-08-14 20:27:00,
2013-08-14 16:33:00,76.5,63.9,29.96,ENE,64,4.0,4.0,65,0.00,CLR,,0.00,WeatherDisplay:10.37,2013-08-14 20:33:00,
2013-08-14 16:38:00,76.9,64.7,29.96,ENE,65,4.6,4.6,66,0.00,CLR,,0.00,WeatherDisplay:10.37,2013-08-14 20:38:00,
2013-08-14 16:43:00,77.0,63.0,29.96,NE,38,6.9,6.9,62,0.00,CLR,,0.00,WeatherDisplay:10.37,2013-08-14 20:43:00,
2013-08-14 16:48:00,77.0,63.9,29.96,NE,41,3.5,3.5,64,0.00,CLR,,0.00,WeatherDisplay:10.37,2013-08-14 20:48:00,
2013-08-14 16:53:00,77.1,63.1,29.97,ENE,71,10.4,10.4,62,0.00,CLR,,0.00,WeatherDisplay:10.37,2013-08-14 20:53:00,
2013-08-14 16:58:00,76.8,62.8,29.97,ENE,61,3.5,3.5,62,0.00,CLR,,0.00,WeatherDisplay:10.37,2013-08-14 20:58:00,
2013-08-14 17:03:00,76.4,62.4,29.96,East,93,6.9,6.9,62,0.00,CLR,,0.00,WeatherDisplay:10.37,2013-08-14 21:03:00,
2013-08-14 17:08:00,76.2,62.7,29.96,ENE,71,6.9,6.9,63,0.00,CLR,,0.00,WeatherDisplay:10.37,2013-08-14 21:08:00,
2013-08-14 17:13:00,76.2,63.1,29.97,NE,41,5.8,5.8,64,0.00,CLR,,0.00,WeatherDisplay:10.37,2013-08-14 21:13:00,
2013-08-14 17:18:00,76.2,63.1,29.97,ENE,69,4.6,4.6,64,0.00,CLR,,0.00,WeatherDisplay:10.37,2013-08-14 21:18:00,
2013-08-14 17:23:00,76.1,63.5,29.97,NE,40,5.0,5.0,65,0.00,CLR,,0.00,WeatherDisplay:10.37,2013-08-14 21:23:00,
2013-08-14 17:28:00,76.2,64.0,29.97,NNE,33,4.6,4.6,66,0.00,CLR,,0.00,WeatherDisplay:10.37,2013-08-14 21:28:00,
2013-08-14 17:34:00,76.3,63.2,29.97,ENE,57,0.0,0.0,64,0.00,CLR,,0.00,WeatherDisplay:10.37,2013-08-14 21:34:00,
2013-08-14 17:39:00,76.3,62.8,29.97,ENE,69,8.1,8.1,63,0.00,CLR,,0.00,WeatherDisplay:10.37,2013-08-14 21:39:00,
2013-08-14 17:44:00,76.1,63.0,29.97,NE,40,2.3,0.0,64,0.00,CLR,,0.00,WeatherDisplay:10.37,2013-08-14 21:44:00,
2013-08-14 17:49:00,75.8,63.2,29.97,ENE,76,5.8,5.8,65,0.00,CLR,,0.00,WeatherDisplay:10.37,2013-08-14 21:49:00,
2013-08-14 17:54:00,75.3,62.7,29.97,NE,42,4.0,4.0,65,0.00,CLR,,0.00,WeatherDisplay:10.37,2013-08-14 21:54:00,
2013-08-14 17:59:00,75.0,62.4,29.97,ENE,60,1.2,3.2,65,0.00,CLR,,0.00,WeatherDisplay:10.37,2013-08-14 21:59:00,
2013-08-14 18:04:00,74.8,62.7,29.97,ENE,60,0.0,0.0,66,0.00,CLR,,0.00,WeatherDisplay:10.37,2013-08-14 22:04:00,
2013-08-14 18:09:00,74.7,63.4,29.97,ENE,60,0.0,0.0,68,0.00,CLR,,0.00,WeatherDisplay:10.37,2013-08-14 22:09:00,
2013-08-14 18:14:00,74.6,63.8,29.97,ENE,60,0.0,0.0,69,0.00,CLR,,0.00,WeatherDisplay:10.37,2013-08-14 22:14:00,
2013-08-14 18:19:00,74.5,64.5,29.97,ENE,70,3.5,3.5,71,0.00,CLR,,0.00,WeatherDisplay:10.37,2013-08-14 22:19:00,
2013-08-14 18:24:00,74.5,63.2,29.97,East,82,0.0,0.0,68,0.00,CLR,,0.00,WeatherDisplay:10.37,2013-08-14 22:24:00,
2013-08-14 18:31:00,74.5,63.7,29.97,ENE,78,1.2,0.0,69,0.00,CLR,,0.00,WeatherDisplay:10.37,2013-08-14 22:31:00,
2013-08-14 18:36:00,74.4,64.0,29.97,ENE,78,0.0,0.0,70,0.00,CLR,,0.00,WeatherDisplay:10.37,2013-08-14 22:36:00,
2013-08-14 18:41:00,74.4,64.4,29.97,SW,230,0.0,0.0,71,0.00,CLR,,0.00,WeatherDisplay:10.37,2013-08-14 22:41:00,
2013-08-14 18:46:00,74.3,64.3,29.97,SSE,148,0.0,0.0,71,0.00,CLR,,0.00,WeatherDisplay:10.37,2013-08-14 22:46:00,
2013-08-14 18:51:00,74.2,64.2,29.97,SSE,148,0.0,0.0,71,0.00,CLR,,0.00,WeatherDisplay:10.37,2013-08-14 22:51:00,
2013-08-14 18:56:00,74.1,64.5,29.97,SSE,155,0.0,0.0,72,0.00,CLR,,0.00,WeatherDisplay:10.37,2013-08-14 22:56:00,
2013-08-14 19:01:00,74.0,64.4,29.97,ESE,105,0.0,0.0,72,0.00,CLR,,0.00,WeatherDisplay:10.37,2013-08-14 23:01:00,
2013-08-14 19:06:00,73.8,64.6,29.97,East,88,0.0,0.0,73,0.00,CLR,,0.00,WeatherDisplay:10.37,2013-08-14 23:06:00,
2013-08-14 19:11:00,73.5,64.3,29.98,ENE,65,0.0,0.0,73,0.00,CLR,,0.00,WeatherDisplay:10.37,2013-08-14 23:11:00,
2013-08-14 19:16:00,73.2,64.0,29.99,ESE,105,0.0,0.0,73,0.00,CLR,,0.00,WeatherDisplay:10.37,2013-08-14 23:16:00,
2013-08-14 19:21:00,73.1,63.9,29.99,ESE,118,0.0,0.0,73,0.00,CLR,,0.00,WeatherDisplay:10.37,2013-08-14 23:21:00,
2013-08-14 19:26:00,73.0,64.2,29.99,ESE,119,0.0,0.0,74,0.00,CLR,,0.00,WeatherDisplay:10.37,2013-08-14 23:26:00,
2013-08-14 19:31:00,72.9,64.5,29.99,SW,231,0.0,0.0,75,0.00,CLR,,0.00,WeatherDisplay:10.37,2013-08-14 23:31:00,
2013-08-14 19:36:00,72.7,64.3,29.99,SW,230,0.0,0.0,75,0.00,CLR,,0.00,WeatherDisplay:10.37,2013-08-14 23:36:00,
2013-08-14 19:41:00,72.5,64.5,29.98,SW,230,0.0,0.0,76,0.00,CLR,,0.00,WeatherDisplay:10.37,2013-08-14 23:41:00,
2013-08-14 19:46:00,72.4,64.0,29.99,SSE,153,0.0,0.0,75,0.00,CLR,,0.00,WeatherDisplay:10.37,2013-08-14 23:46:00,
2013-08-14 19:51:00,72.1,63.7,29.99,South,179,0.0,0.0,75,0.00,CLR,,0.00,WeatherDisplay:10.37,2013-08-14 23:51:00,
2013-08-14 19:56:00,72.0,64.0,30.00,South,175,0.0,0.0,76,0.00,CLR,,0.00,WeatherDisplay:10.37,2013-08-14 23:56:00,
2013-08-14 20:02:00,71.7,63.7,30.00,South,175,0.0,0.0,76,0.00,CLR,,0.00,WeatherDisplay:10.37,2013-08-15 00:02:00,
2013-08-14 20:07:00,71.4,63.8,30.00,South,175,0.0,0.0,77,0.00,CLR,,0.00,WeatherDisplay:10.37,2013-08-15 00:07:00,
2013-08-14 20:12:00,71.3,64.1,30.00,South,175,0.0,0.0,78,0.00,CLR,,0.00,WeatherDisplay:10.37,2013-08-15 00:12:00,
2013-08-14 20:17:00,71.0,64.2,30.00,South,175,0.0,0.0,79,0.00,CLR,,0.00,WeatherDisplay:10.37,2013-08-15 00:17:00,
2013-08-14 20:22:00,70.6,63.8,30.00,South,175,0.0,0.0,79,0.00,CLR,,0.00,WeatherDisplay:10.37,2013-08-15 00:22:00,
2013-08-14 20:27:00,70.4,64.3,30.01,South,175,0.0,0.0,81,0.00,CLR,,0.00,WeatherDisplay:10.37,2013-08-15 00:27:00,
2013-08-14 20:32:00,69.9,64.2,30.00,South,175,0.0,0.0,82,0.00,CLR,,0.00,WeatherDisplay:10.37,2013-08-15 00:32:00,
2013-08-14 20:37:00,69.4,64.0,30.01,South,175,0.0,0.0,83,0.00,CLR,,0.00,WeatherDisplay:10.37,2013-08-15 00:37:00,
2013-08-14 20:42:00,69.0,63.6,30.01,South,175,0.0,0.0,83,0.00,CLR,,0.00,WeatherDisplay:10.37,2013-08-15 00:42:00,
2013-08-14 20:47:00,68.8,63.4,30.01,South,175,0.0,0.0,83,0.00,CLR,,0.00,WeatherDisplay:10.37,2013-08-15 00:47:00,
2013-08-14 20:52:00,68.5,63.5,30.01,South,175,0.0,0.0,84,0.00,CLR,,0.00,WeatherDisplay:10.37,2013-08-15 00:52:00,
2013-08-14 20:57:00,68.3,62.9,30.02,South,175,0.0,0.0,83,0.00,CLR,,0.00,WeatherDisplay:10.37,2013-08-15 00:57:00,
2013-08-14 21:02:00,68.1,62.7,30.02,South,175,0.0,0.0,83,0.00,CLR,,0.00,WeatherDisplay:10.37,2013-08-15 01:02:00,
2013-08-14 21:07:00,67.9,62.9,30.02,South,175,0.0,0.0,84,0.00,CLR,,0.00,WeatherDisplay:10.37,2013-08-15 01:07:00,
2013-08-14 21:12:00,67.7,63.0,30.02,South,175,0.0,0.0,85,0.00,CLR,,0.00,WeatherDisplay:10.37,2013-08-15 01:12:00,
2013-08-14 21:17:00,67.5,63.2,30.02,South,175,0.0,0.0,86,0.00,CLR,,0.00,WeatherDisplay:10.37,2013-08-15 01:17:00,
2013-08-14 21:22:00,67.3,63.0,30.03,South,175,0.0,0.0,86,0.00,CLR,,0.00,WeatherDisplay:10.37,2013-08-15 01:22:00,
2013-08-14 21:27:00,67.1,62.8,30.03,South,175,0.0,0.0,86,0.00,CLR,,0.00,WeatherDisplay:10.37,2013-08-15 01:27:00,
2013-08-14 21:32:00,67.0,62.7,30.03,South,175,0.0,0.0,86,0.00,CLR,,0.00,WeatherDisplay:10.37,2013-08-15 01:32:00,
2013-08-14 21:37:00,66.8,62.5,30.04,South,175,0.0,0.0,86,0.00,CLR,,0.00,WeatherDisplay:10.37,2013-08-15 01:37:00,
2013-08-14 21:42:00,66.6,62.3,30.03,South,175,0.0,0.0,86,0.00,CLR,,0.00,WeatherDisplay:10.37,2013-08-15 01:42:00,
2013-08-14 21:47:00,66.5,62.5,30.04,South,175,0.0,0.0,87,0.00,CLR,,0.00,WeatherDisplay:10.37,2013-08-15 01:47:00,
2013-08-14 21:52:00,66.3,62.6,30.04,South,175,0.0,0.0,88,0.00,CLR,,0.00,WeatherDisplay:10.37,2013-08-15 01:52:00,
2013-08-14 21:57:00,66.1,62.8,30.04,South,175,0.0,0.0,89,0.00,CLR,,0.00,WeatherDisplay:10.37,2013-08-15 01:57:00,
2013-08-14 22:02:00,66.0,62.7,30.04,South,175,0.0,0.0,89,0.00,CLR,,0.00,WeatherDisplay:10.37,2013-08-15 02:02:00,
2013-08-14 22:07:00,65.8,62.5,30.04,South,175,0.0,0.0,89,0.00,CLR,,0.00,WeatherDisplay:10.37,2013-08-15 02:07:00,
2013-08-14 22:12:00,65.7,62.4,30.04,South,175,0.0,0.0,89,0.00,CLR,,0.00,WeatherDisplay:10.37,2013-08-15 02:12:00,
2013-08-14 22:17:00,65.6,62.6,30.05,South,175,0.0,0.0,90,0.00,CLR,,0.00,WeatherDisplay:10.37,2013-08-15 02:17:00,
2013-08-14 22:22:00,65.4,62.4,30.05,South,175,0.0,0.0,90,0.00,CLR,,0.00,WeatherDisplay:10.37,2013-08-15 02:22:00,
2013-08-14 22:27:00,65.3,62.0,30.05,South,175,0.0,0.0,89,0.00,CLR,,0.00,WeatherDisplay:10.37,2013-08-15 02:27:00,
2013-08-14 22:32:00,65.2,61.9,30.06,South,175,0.0,0.0,89,0.00,CLR,,0.00,WeatherDisplay:10.37,2013-08-15 02:32:00,
2013-08-14 22:37:00,65.1,62.1,30.06,South,175,0.0,0.0,90,0.00,CLR,,0.00,WeatherDisplay:10.37,2013-08-15 02:37:00,
2013-08-14 22:42:00,65.0,62.3,30.06,South,175,0.0,0.0,91,0.00,CLR,,0.00,WeatherDisplay:10.37,2013-08-15 02:42:00,
2013-08-14 22:47:00,64.9,62.2,30.06,South,175,0.0,0.0,91,0.00,CLR,,0.00,WeatherDisplay:10.37,2013-08-15 02:47:00,
2013-08-14 22:52:00,64.9,62.5,30.06,South,175,0.0,0.0,92,0.00,CLR,,0.00,WeatherDisplay:10.37,2013-08-15 02:52:00,
2013-08-14 22:57:00,64.8,62.1,30.06,South,175,0.0,0.0,91,0.00,CLR,,0.00,WeatherDisplay:10.37,2013-08-15 02:57:00,
2013-08-14 23:02:00,64.8,62.4,30.07,South,175,0.0,0.0,92,0.00,CLR,,0.00,WeatherDisplay:10.37,2013-08-15 03:02:00,
2013-08-14 23:07:00,64.7,62.3,30.07,South,175,0.0,0.0,92,0.00,CLR,,0.00,WeatherDisplay:10.37,2013-08-15 03:07:00,
2013-08-14 23:12:00,64.7,62.3,30.07,South,175,0.0,0.0,92,0.00,CLR,,0.00,WeatherDisplay:10.37,2013-08-15 03:12:00,
2013-08-14 23:17:00,64.6,62.2,30.07,South,175,0.0,0.0,92,0.00,CLR,,0.00,WeatherDisplay:10.37,2013-08-15 03:17:00,
2013-08-14 23:22:00,64.5,62.1,30.07,South,175,0.0,0.0,92,0.00,CLR,,0.00,WeatherDisplay:10.37,2013-08-15 03:22:00,
2013-08-14 23:27:00,64.5,62.4,30.07,South,175,0.0,0.0,93,0.00,CLR,,0.00,WeatherDisplay:10.37,2013-08-15 03:27:00,
2013-08-14 23:32:00,64.4,62.0,30.07,South,175,0.0,0.0,92,0.00,CLR,,0.00,WeatherDisplay:10.37,2013-08-15 03:32:00,
2013-08-14 23:37:00,64.3,61.9,30.07,South,175,0.0,0.0,92,0.00,CLR,,0.00,WeatherDisplay:10.37,2013-08-15 03:37:00,
2013-08-14 23:42:00,64.2,61.8,30.07,South,175,0.0,0.0,92,0.00,CLR,,0.00,WeatherDisplay:10.37,2013-08-15 03:42:00,
2013-08-14 23:47:00,64.1,61.7,30.07,South,175,0.0,0.0,92,0.00,CLR,,0.00,WeatherDisplay:10.37,2013-08-15 03:47:00,
2013-08-14 23:52:00,64.1,62.0,30.07,South,175,0.0,0.0,93,0.00,CLR,,0.00,WeatherDisplay:10.37,2013-08-15 03:52:00,
2013-08-14 23:57:00,64.0,61.9,30.07,South,175,0.0,0.0,93,0.00,CLR,,0.00,WeatherDisplay:10.37,2013-08-15 03:57:00,